• In Deutschland
  • Länderverzeichnis
  • Für 7 Tage
  • Wassertemperatur
  • Satellitenkarten
  • Wetterkarte
  • Widgets
  • user-avatar
    Anmelden

    Stündliche Wetter Gamboma

    Heute, 23 Juli, Montag

    Zeit Temperatur Niederschläge Wind Luftdruck Luftfeuchtigkeit
    00:00 +29°C° 0 mm 1 m/S 729 mmHg 54%
    01:00 +28°C° 0 mm 1 m/S 729 mmHg 58%
    02:00 +28°C° 0 mm 1 m/S 728 mmHg 61%
    03:00 +27°C° 0 mm 1 m/S 728 mmHg 64%
    04:00 +27°C° 0 mm 2 m/S 728 mmHg 68%
    05:00 +27°C° 0 mm 2 m/S 729 mmHg 67%
    06:00 +27°C° 0 mm 2 m/S 729 mmHg 67%
    07:00 +28°C° 0 mm 2 m/S 730 mmHg 66%
    08:00 +29°C° 0 mm 2 m/S 730 mmHg 59%
    09:00 +31°C° 0 mm 3 m/S 730 mmHg 52%
    10:00 +34°C° 0 mm 3 m/S 730 mmHg 44%
    11:00 +36°C° 0 mm 3 m/S 730 mmHg 39%
    12:00 +37°C° 0 mm 2 m/S 729 mmHg 33%
    13:00 +39°C° 0 mm 2 m/S 729 mmHg 28%
    14:00 +37°C° 0 mm 1 m/S 728 mmHg 28%
    15:00 +37°C° 0 mm 1 m/S 727 mmHg 28%
    16:00 +36°C° 0 mm 1 m/S 727 mmHg 28%
    17:00 +35°C° 0 mm 1 m/S 727 mmHg 31%
    18:00 +34°C° 0 mm 1 m/S 727 mmHg 34%
    19:00 +32°C° 0 mm 2 m/S 727 mmHg 37%
    20:00 +31°C° 0 mm 2 m/S 728 mmHg 41%
    21:00 +30°C° 0 mm 1 m/S 728 mmHg 44%
    22:00 +29°C° 0 mm 1 m/S 729 mmHg 47%
    23:00 +29°C° 0 mm 2 m/S 729 mmHg 50%

    Morgen, 24 Juli, Dienstag

    Zeit Temperatur Niederschläge Wind Luftdruck Luftfeuchtigkeit
    00:00 +29°C° 0 mm 2 m/S 729 mmHg 53%
    01:00 +28°C° 0 mm 2 m/S 729 mmHg 56%
    02:00 +28°C° 0 mm 2 m/S 729 mmHg 59%
    03:00 +27°C° 0 mm 2 m/S 729 mmHg 62%
    04:00 +27°C° 0 mm 2 m/S 729 mmHg 65%
    05:00 +27°C° 0 mm 2 m/S 729 mmHg 64%
    06:00 +27°C° 0 mm 2 m/S 729 mmHg 64%
    07:00 +27°C° 0 mm 3 m/S 730 mmHg 63%
    08:00 +29°C° 0 mm 3 m/S 730 mmHg 55%
    09:00 +31°C° 0 mm 3 m/S 730 mmHg 48%
    10:00 +34°C° 0 mm 3 m/S 731 mmHg 40%
    11:00 +36°C° 0 mm 2 m/S 730 mmHg 35%
    12:00 +37°C° 0 mm 2 m/S 729 mmHg 30%
    13:00 +39°C° 0 mm 2 m/S 729 mmHg 26%
    14:00 +39°C° 0 mm 2 m/S 728 mmHg 25%
    15:00 +39°C° 0 mm 2 m/S 727 mmHg 23%
    16:00 +39°C° 0 mm 1 m/S 727 mmHg 22%
    17:00 +36°C° 0 mm 1 m/S 727 mmHg 25%
    18:00 +35°C° 0 mm 1 m/S 727 mmHg 28%
    19:00 +33°C° 0 mm 1 m/S 728 mmHg 31%
    20:00 +32°C° 0 mm 1 m/S 728 mmHg 34%
    21:00 +31°C° 0 mm 2 m/S 729 mmHg 37%
    22:00 +31°C° 0 mm 2 m/S 729 mmHg 40%
    23:00 +30°C° 0 mm 2 m/S 729 mmHg 43%

    übermorgen, 25 Juli, Mittwoch

    Zeit Temperatur Niederschläge Wind Luftdruck Luftfeuchtigkeit
    00:00 +29°C° 0 mm 3 m/S 729 mmHg 45%
    01:00 +28°C° 0 mm 3 m/S 729 mmHg 47%
    02:00 +28°C° 0 mm 3 m/S 729 mmHg 53%
    03:00 +27°C° 0 mm 2 m/S 728 mmHg 58%
    04:00 +27°C° 0 mm 2 m/S 728 mmHg 64%
    05:00 +27°C° 0 mm 3 m/S 729 mmHg 65%
    06:00 +26°C° 0 mm 3 m/S 729 mmHg 65%
    07:00 +26°C° 0 mm 3 m/S 730 mmHg 66%
    08:00 +28°C° 0 mm 3 m/S 730 mmHg 59%
    09:00 +30°C° 0 mm 3 m/S 731 mmHg 52%
    10:00 +33°C° 0 mm 3 m/S 731 mmHg 45%
    11:00 +35°C° 0 mm 3 m/S 731 mmHg 40%
    12:00 +36°C° 0 mm 2 m/S 730 mmHg 35%
    13:00 +38°C° 0 mm 2 m/S 729 mmHg 30%
    14:00 +38°C° 0 mm 2 m/S 728 mmHg 28%
    15:00 +38°C° 0 mm 2 m/S 728 mmHg 26%
    16:00 +39°C° 0 mm 2 m/S 727 mmHg 24%
    17:00 +36°C° 0 mm 1 m/S 727 mmHg 27%
    18:00 +34°C° 0 mm 1 m/S 728 mmHg 30%
    19:00 +32°C° 0 mm 1 m/S 728 mmHg 33%
    20:00 +32°C° 0 mm 1 m/S 729 mmHg 36%
    21:00 +31°C° 0 mm 1 m/S 729 mmHg 38%
    22:00 +31°C° 0 mm 2 m/S 730 mmHg 40%
    23:00 +30°C° 0 mm 2 m/S 729 mmHg 43%

    26 Juli, Donnerstag

    Zeit Temperatur Niederschläge Wind Luftdruck Luftfeuchtigkeit
    00:00 +30°C° 0 mm 3 m/S 729 mmHg 47%
    01:00 +29°C° 0 mm 3 m/S 729 mmHg 50%
    02:00 +29°C° 0 mm 3 m/S 729 mmHg 53%
    03:00 +28°C° 0 mm 3 m/S 729 mmHg 55%
    04:00 +27°C° 0 mm 3 m/S 729 mmHg 58%
    05:00 +27°C° 0 mm 3 m/S 729 mmHg 57%
    06:00 +27°C° 0 mm 3 m/S 730 mmHg 56%
    07:00 +27°C° 0 mm 3 m/S 730 mmHg 56%
    08:00 +29°C° 0 mm 3 m/S 731 mmHg 51%
    09:00 +31°C° 0 mm 3 m/S 731 mmHg 45%
    10:00 +33°C° 0 mm 3 m/S 731 mmHg 40%
    11:00 +35°C° 0 mm 3 m/S 731 mmHg 37%
    12:00 +36°C° 0 mm 3 m/S 730 mmHg 33%
    13:00 +38°C° 0 mm 3 m/S 729 mmHg 30%
    14:00 +38°C° 0 mm 2 m/S 729 mmHg 29%
    15:00 +38°C° 0 mm 2 m/S 728 mmHg 28%
    16:00 +38°C° 0 mm 2 m/S 728 mmHg 27%
    17:00 +36°C° 0 mm 2 m/S 728 mmHg 30%
    18:00 +35°C° 0 mm 2 m/S 729 mmHg 34%
    19:00 +34°C° 0 mm 2 m/S 729 mmHg 37%
    20:00 +32°C° 0 mm 2 m/S 729 mmHg 39%
    21:00 +31°C° 0 mm 2 m/S 730 mmHg 41%
    22:00 +31°C° 0 mm 2 m/S 730 mmHg 44%
    23:00 +30°C° 0 mm 2 m/S 730 mmHg 45%

    27 Juli, Freitag

    Zeit Temperatur Niederschläge Wind Luftdruck Luftfeuchtigkeit
    00:00 +29°C° 0 mm 3 m/S 730 mmHg 47%
    01:00 +29°C° 0 mm 3 m/S 730 mmHg 48%
    02:00 +28°C° 0 mm 3 m/S 729 mmHg 49%
    03:00 +28°C° 0 mm 3 m/S 729 mmHg 50%
    04:00 +27°C° 0 mm 3 m/S 729 mmHg 51%
    05:00 +27°C° 0 mm 3 m/S 730 mmHg 52%
    06:00 +27°C° 0 mm 3 m/S 730 mmHg 54%
    07:00 +27°C° 0 mm 3 m/S 731 mmHg 55%
    08:00 +29°C° 0 mm 3 m/S 731 mmHg 49%
    09:00 +31°C° 0 mm 3 m/S 731 mmHg 44%
    10:00 +33°C° 0 mm 3 m/S 732 mmHg 39%
    11:00 +35°C° 0 mm 2 m/S 731 mmHg 36%
    12:00 +36°C° 0 mm 2 m/S 730 mmHg 32%
    13:00 +38°C° 0 mm 2 m/S 729 mmHg 29%
    14:00 +37°C° 0 mm 2 m/S 729 mmHg 30%
    15:00 +37°C° 0 mm 2 m/S 728 mmHg 30%
    16:00 +35°C° 0 mm 1 m/S 727 mmHg 31%
    17:00 +34°C° 0 mm 1 m/S 728 mmHg 33%
    18:00 +33°C° 0 mm 1 m/S 728 mmHg 35%
    19:00 +32°C° 0 mm 1 m/S 729 mmHg 37%
    20:00 +32°C° 0 mm 1 m/S 729 mmHg 37%
    21:00 +31°C° 0 mm 2 m/S 730 mmHg 38%
    22:00 +31°C° 0 mm 2 m/S 730 mmHg 38%
    23:00 +30°C° 0 mm 2 m/S 730 mmHg 38%

    28 Juli, Samstag

    Zeit Temperatur Niederschläge Wind Luftdruck Luftfeuchtigkeit
    00:00 +30°C° 0 mm 2 m/S 730 mmHg 38%
    01:00 +30°C° 0 mm 2 m/S 729 mmHg 39%
    02:00 +29°C° 0 mm 2 m/S 729 mmHg 40%
    03:00 +29°C° 0 mm 2 m/S 729 mmHg 42%
    04:00 +28°C° 0 mm 2 m/S 729 mmHg 44%
    05:00 +28°C° 0 mm 2 m/S 729 mmHg 45%
    06:00 +28°C° 0 mm 2 m/S 730 mmHg 47%
    07:00 +28°C° 0 mm 2 m/S 730 mmHg 48%
    08:00 +30°C° 0 mm 3 m/S 731 mmHg 44%
    09:00 +31°C° 0 mm 3 m/S 731 mmHg 40%
    10:00 +34°C° 0 mm 3 m/S 731 mmHg 36%
    11:00 +35°C° 0 mm 3 m/S 730 mmHg 34%
    12:00 +37°C° 0 mm 3 m/S 730 mmHg 31%
    13:00 +38°C° 0 mm 3 m/S 729 mmHg 28%
    14:00 +38°C° 0 mm 2 m/S 728 mmHg 28%
    15:00 +38°C° 0 mm 2 m/S 728 mmHg 27%
    16:00 +38°C° 0 mm 2 m/S 727 mmHg 27%
    17:00 +37°C° 0 mm 2 m/S 727 mmHg 29%
    18:00 +36°C° 0 mm 2 m/S 728 mmHg 31%
    19:00 +33°C° 0 mm 1 m/S 728 mmHg 34%
    20:00 +34°C° 0 mm 2 m/S 729 mmHg 35%
    21:00 +32°C° 0 mm 2 m/S 729 mmHg 35%
    22:00 +32°C° 0 mm 2 m/S 730 mmHg 36%
    23:00 +31°C° 0 mm 2 m/S 729 mmHg 38%
    Mehr zeigen